Dewpoint
70 71 72 71 73 74 73 74 75 75 76 74 75 75 74 74 76 77 77 74 75 75 73 74 75 76 72 70 70 70 69 68 67 66 66 69 74 74 74 75 74 73 71
72 74 71 70 71 71 73 72 74 75 75 75 75 75 75 75 76 76 76 74 75 74 74 74 74 71 75 76 72 74 72 73 70 74 73 70 74 75 75 75 73 71 71
72 70 70 70 69 70 70 72 74 75 75 74 75 75 74 74 74 75 76 75 75 75 75 74 74 74 75 73 73 72 70 69 70 67 68 68 69 70 72 74 74 74 71
68 69 70 69 69 69 71 73 75 75 74 74 74 75 75 75 74 74 74 75 75 75 75 75 75 75 75 76 75 75 74 73 72 69 66 65 67 71 70 70 68 67 67
69 69 71 72 72 71 72 72 73 75 75 74 74 74 74 73 71 73 74 74 75 75 75 75 75 74 71 72 71 75 78 72 66 63 62 63 62 62 66 66 66 66 70
71 69 72 74 74 74 74 74 75 75 76 75 74 72 72 70 65 65 70 70 71 72 73 74 74 72 72 69 69 69 72 75 76 69 65 64 73 71 66 67 68 68 68
71 71 71 73 72 73 73 74 74 75 76 76 75 73 74 74 65 64 66 73 71 70 73 72 70 67 69 70 68 68 68 67 68 74 74 74 74 75 76 75 75 73 72
71 71 72 72 72 73 74 74 75 73 74 75 74 75 75 73 65 63 64 73 73 74 73 72 74 74 74 72 72 69 70 70 71 71 74 74 75 75 77 76 75 73 73
70 72 71 72 72 72 72 73 73 73 73 73 73 74 75 75 63 62 66 71 70 71 71 74 73 74 69 64 73 73 73 71 67 63 64 65 64 64 66 71 70 70 70
69 70 70 71 71 72 72 73 74 74 73 72 73 74 70 74 66 61 64 69 69 68 72 74 66 71 65 62 73 73 73 72 73 73 74 71 67 71 64 71 72 72 70
66 67 70 70 70 71 72 73 74 74 74 74 75 75 76 74 75 61 59 71 70 69 68 68 68 62 61 60 60 73 72 72 72 73 73 74 75 74 75 72 74 72 71
66 65 66 68 69 71 71 71 73 73 73 74 74 74 73 77 68 65 59 59 68 71 71 69 70 60 56 57 60 62 60 62 70 70 71 71 72 73 76 76 74 73 71
66 66 66 67 67 69 69 70 71 72 71 73 72 73 73 73 75 61 58 58 59 69 72 68 61 59 57 60 56 58 57 70 71 70 72 72 74 73 75 71 70 68 64
64 65 65 65 66 66 66 66 68 68 67 68 69 70 72 74 74 65 66 71 62 65 65 68 67 65 62 64 66 68 72 73 72 74 73 73 73 72 71 70 66 63 62
61 61 61 59 62 62 63 63 64 64 62 64 64 65 65 67 66 52 52 64 67 65 62 74 73 72 72 73 74 75 75 74 74 73 73 72 71 70 70 67 65 62 61
58 57 56 57 57 58 59 61 59 57 51 49 48 53 58 55 48 45 44 44 46 48 66 71 72 72 70 72 75 76 77 73 73 73 74 71 68 67 68 66 64 62 60
55 54 54 54 56 56 57 58 58 58 52 49 48 48 47 45 44 43 44 45 46 50 66 70 71 71 73 75 76 76 76 77 78 76 72 71 67 69 67 65 63 62 62
55 52 53 53 53 54 54 55 55 56 57 58 52 52 48 47 45 46 47 53 65 61 67 68 69 69 70 70 70 72 74 76 77 75 72 70 70 69 67 65 63 62 62
48 50 53 56 55 54 54 54 53 55 55 56 57 54 52 48 47 48 51 59 59 59 59 61 61 61 61 62 64 68 70 71 73 73 72 71 70 69 67 66 64 57 59
48 50 48 50 50 51 51 52 53 53 53 53 53 54 53 54 57 57 58 58 57 56 56 57 56 56 56 56 57 59 64 66 69 71 71 69 68 68 67 66 64 62 61
41 45 50 44 46 46 47 48 49 51 51 51 51 51 45 54 55 56 55 54 53 53 53 53 54 52 52 53 52 54 57 63 65 66 67 67 68 67 67 66 65 63 60
42 41 43 43 44 43 44 43 46 46 48 48 49 50 45 51 52 54 55 55 54 52 51 51 51 51 50 50 50 50 51 54 57 58 64 65 65 65 65 64 62 61 60
40 40 39 42 43 43 41 41 40 42 43 44 45 45 45 46 47 48 50 53 53 50 49 49 48 47 47 48 49 50 48 48 49 53 58 63 64 63 62 62 60 59 58
36 39 39 39 39 37 36 37 37 39 39 39 40 42 42 43 41 42 43 45 47 48 47 46 46 44 44 44 46 45 47 43 44 50 54 62 62 59 61 60 60 59 58
35 36 38 39 38 36 36 36 36 37 38 37 37 38 40 41 40 38 39 39 40 41 41 39 38 37 36 37 36 36 34 31 37 38 49 56 61 63 62 61 60 58 57
34 34 34 35 36 37 36 36 35 36 35 35 35 36 38 39 40 38 37 37 36 35 37 36 36 36 35 31 32 33 31 30 34 32 43 55 56 59 60 59 59 59 57
Lifted_Index
-3 -3 -3 -4 -4 -4 -4 -5 -5 -5 -5 -5 -5 -5 -5 -6 -6 -7 -7 -7 -7 -7 -7 -8 -8 -8 -8 -8 -8 -8 -7 -7 -7 -7 -7 -7 -7 -7 -7 -7 -6 -5 -5
-4 -4 -4 -4 -4 -4 -4 -4 -5 -5 -5 -5 -5 -5 -5 -5 -6 -7 -7 -7 -7 -8 -8 -8 -8 -8 -8 -8 -8 -8 -8 -7 -7 -7 -7 -7 -7 -7 -6 -6 -6 -6 -5
-5 -4 -4 -4 -4 -4 -4 -4 -5 -6 -6 -5 -5 -5 -5 -5 -6 -6 -7 -7 -7 -8 -8 -8 -8 -8 -9 -9 -8 -8 -8 -7 -7 -7 -6 -6 -6 -6 -6 -6 -5 -5 -5
-5 -5 -4 -4 -4 -4 -4 -5 -5 -6 -6 -6 -6 -6 -6 -6 -6 -6 -6 -7 -7 -8 -8 -8 -8 -8 -8 -8 -8 -8 -8 -7 -6 -5 -5 -4 -5 -5 -5 -5 -5 -5 -5
-5 -5 -5 -5 -5 -5 -5 -5 -5 -6 -6 -6 -6 -6 -6 -6 -6 -6 -6 -6 -7 -7 -7 -8 -8 -8 -8 -7 -7 -7 -7 -7 -6 -5 -4 -3 -4 -4 -4 -4 -4 -4 -4
-6 -5 -6 -6 -6 -6 -5 -6 -6 -6 -6 -6 -6 -6 -6 -6 -5 -5 -5 -6 -6 -6 -6 -7 -7 -7 -7 -6 -6 -6 -6 -6 -6 -5 -4 -4 -4 -5 -4 -4 -5 -5 -5
-6 -6 -6 -6 -6 -6 -6 -6 -6 -6 -7 -6 -6 -6 -6 -6 -5 -5 -5 -5 -5 -5 -6 -6 -6 -6 -6 -6 -6 -6 -6 -6 -6 -5 -5 -5 -6 -6 -6 -6 -6 -5 -5
-6 -6 -6 -6 -6 -6 -6 -6 -7 -7 -7 -6 -6 -6 -6 -6 -6 -5 -5 -5 -5 -5 -5 -6 -6 -6 -6 -6 -6 -5 -5 -5 -5 -5 -5 -5 -6 -6 -6 -6 -6 -5 -5
-5 -5 -5 -6 -6 -6 -6 -6 -6 -6 -7 -6 -6 -6 -6 -6 -6 -5 -5 -4 -4 -5 -5 -6 -6 -6 -6 -6 -6 -5 -5 -5 -6 -5 -5 -6 -6 -5 -5 -5 -5 -5 -5
-4 -4 -4 -4 -5 -6 -6 -6 -6 -6 -7 -7 -7 -7 -7 -7 -6 -6 -5 -4 -4 -5 -5 -6 -6 -6 -6 -6 -6 -5 -6 -6 -6 -6 -6 -6 -6 -6 -6 -6 -6 -5 -5
-4 -3 -3 -3 -3 -4 -5 -6 -6 -7 -7 -8 -8 -8 -7 -8 -8 -7 -6 -6 -5 -5 -6 -6 -6 -6 -6 -6 -6 -6 -6 -6 -6 -6 -7 -7 -7 -7 -7 -7 -6 -5 -5
-3 -3 -3 -3 -3 -3 -4 -5 -6 -6 -7 -8 -8 -8 -8 -9 -9 -8 -8 -7 -6 -6 -6 -7 -7 -6 -6 -6 -6 -6 -6 -6 -6 -6 -7 -7 -7 -7 -7 -7 -6 -5 -4
-3 -2 -2 -3 -3 -3 -4 -4 -5 -6 -7 -7 -7 -8 -8 -9 -9 -9 -9 -8 -7 -7 -6 -7 -7 -7 -7 -7 -7 -7 -6 -6 -6 -7 -7 -7 -7 -7 -6 -6 -5 -4 -3
-1 -1 -1 -1 -1 -2 -2 -3 -4 -5 -5 -6 -7 -7 -7 -7 -8 -8 -9 -8 -8 -7 -7 -7 -7 -7 -7 -7 -7 -7 -7 -8 -8 -8 -7 -7 -6 -6 -5 -4 -4 -3 -3
-0 -0 0 0 0 -0 -0 -1 -2 -3 -3 -4 -5 -5 -6 -6 -6 -7 -7 -7 -7 -7 -7 -7 -7 -7 -7 -8 -8 -9 -9 -8 -8 -8 -7 -7 -6 -4 -3 -3 -3 -2 -2
2 2 1 1 1 1 1 0 0 -0 -1 -2 -3 -3 -4 -4 -4 -5 -5 -6 -6 -7 -6 -7 -7 -7 -7 -8 -9 -9 -9 -8 -8 -8 -7 -6 -5 -4 -3 -3 -2 -2 -1
3 3 3 2 2 2 1 1 1 1 0 -0 -1 -1 -2 -3 -3 -4 -4 -5 -5 -6 -6 -6 -6 -6 -6 -7 -8 -8 -8 -8 -8 -8 -7 -6 -5 -4 -3 -3 -3 -2 -1
4 4 4 4 3 3 2 2 2 2 1 1 1 0 -0 -1 -2 -2 -3 -3 -4 -4 -5 -5 -5 -4 -5 -5 -6 -6 -7 -7 -8 -8 -7 -6 -5 -4 -4 -3 -3 -2 -1
5 5 5 4 4 4 4 3 3 3 3 2 2 2 2 2 1 -0 -1 -2 -2 -3 -3 -3 -3 -3 -3 -3 -4 -4 -5 -6 -7 -7 -7 -6 -5 -5 -4 -3 -2 -2 -1
6 6 6 5 5 5 5 4 4 4 4 4 4 4 5 4 3 2 1 0 -0 -0 -1 -1 -1 -1 -1 -1 -2 -2 -3 -4 -5 -5 -6 -5 -5 -4 -3 -2 -2 -1 -1
6 6 6 6 6 6 6 5 5 4 4 4 5 5 6 6 5 4 3 2 2 1 1 0 0 -0 -0 -0 -1 -1 -3 -3 -3 -4 -4 -4 -4 -4 -3 -2 -1 -1 -1
6 6 6 6 6 6 6 6 5 5 5 5 5 5 6 6 5 5 5 4 3 3 2 1 1 1 1 1 0 -1 -2 -2 -2 -3 -3 -3 -3 -3 -2 -2 -1 -1 -1
6 6 5 5 5 6 6 6 6 6 6 5 5 5 6 6 6 7 7 7 6 5 4 3 2 2 2 2 1 0 -0 -1 -1 -1 -2 -2 -2 -2 -2 -1 -1 -1 -1
6 6 5 5 5 6 6 7 7 7 7 6 6 6 6 7 7 8 9 9 8 8 7 6 5 5 4 3 3 2 1 1 0 -0 -0 -1 -1 -1 -1 -1 -1 -1 -0
6 6 6 6 6 6 7 7 7 7 7 7 7 8 7 8 8 9 10 10 10 10 10 10 9 9 8 7 6 5 4 3 2 1 1 0 -0 -0 -0 -0 -0 -0 0
6 7 6 6 6 6 7 7 7 7 7 8 8 8 8 8 8 9 10 11 11 12 12 12 12 12 11 10 10 8 6 4 3 2 2 1 0 0 -0 -0 0 0 0